This is the latest recevied weather packets stored in our database for station/object KL1SF-7. If no packets are shown the sender has not sent any weather packets the latest 10 day(s).
| Time | Temp. | Humidity | Pressure | Rain* | Wind** | Luminosity | Snow |
|---|---|---|---|---|---|---|---|
| 1777812207 | 3.33° C | 45% | 1018.9 hPa | 0 mm | - | - | - |
| 1777811620 | 3.89° C | 45% | 1019.1 hPa | 0 mm | - | - | - |
| 1777811021 | 3.89° C | 44% | 1019 hPa | 0 mm | - | - | - |
| 1777810410 | 3.89° C | 44% | 1019 hPa | 0 mm | - | - | - |
| 1777809827 | 4.44° C | 44% | 1018.5 hPa | 0 mm | - | - | - |
| 1777809208 | 4.44° C | 43% | 1018.5 hPa | 0 mm | - | - | - |
| 1777808618 | 4.44° C | 43% | 1018.5 hPa | 0 mm | - | - | - |
| 1777808030 | 5° C | 42% | 1018.5 hPa | 0 mm | - | - | - |
| 1777807411 | 5° C | 41% | 1018.8 hPa | 0 mm | - | - | - |
| 1777806821 | 5.56° C | 41% | 1018.8 hPa | 0 mm | - | - | - |
| 1777806218 | 5.56° C | 40% | 1019.2 hPa | 0 mm | - | - | - |
| 1777805618 | 6.11° C | 39% | 1019.3 hPa | 0 mm | - | - | - |
| 1777805008 | 6.67° C | 38% | 1019.3 hPa | 0 mm | - | - | - |
| 1777804421 | 7.22° C | 37% | 1019.1 hPa | 0 mm | - | - | - |
| 1777803805 | 7.78° C | 35% | 1019.5 hPa | 0 mm | - | - | - |
| 1777803215 | 8.89° C | 33% | 1019.5 hPa | 0 mm | - | - | - |
| 1777802612 | 8.89° C | 33% | 1019.1 hPa | 0 mm | - | - | - |
| 1777802012 | 9.44° C | 32% | 1019.1 hPa | 0 mm | - | - | - |
| 1777801402 | 9.44° C | 32% | 1019.1 hPa | 0 mm | - | - | - |
| 1777800815 | 9.44° C | 31% | 1019.2 hPa | 0 mm | - | - | - |
| 1777800216 | 9.44° C | 30% | 1019.2 hPa | 0 mm | - | - | - |
| 1777799605 | 10° C | 30% | 1019.2 hPa | 0 mm | - | - | - |
| 1777799022 | 10° C | 29% | 1019.2 hPa | 0 mm | - | - | - |
| 1777798403 | 10° C | 28% | 1019.2 hPa | 0 mm | - | - | - |
| 1777797812 | 10° C | 29% | 1019.2 hPa | 0 mm | - | - | - |
* Rain since midnight (hover to see other rain measurements)
** Current wind speed in m/s (hover to see current wind gust speed)